ELECTRON KICK STAGE R/B, 62086

Orbit data source: Space-Track

ELECTRON KICK STAGE R/B, 62086 is space debris in SSO originally from a launch on Mon, 25 Nov 2024 UTC launched from the Rocket Lab Launch Complex (RLLC). Debris objects in space refer to the collection of defunct objects orbiting the Earth. Examples of debris include non-operational satellites, rocket bodies, and fragments generated from explosions, collisions, or faulty payload assembly.

Loading next visibility...
Identifier
62086, 2024-219F
Orbit
SSO
Country
Flag of USUS
Related business
Manufacturer
Rocket Lab
Mission
Spacecraft
Bus & Motor
KICK STAGE, CURIE
Mass
~50 kg wet, ~50 kg dry
Launch date (UTC)
2024-11-25 (11 months ago)
Launch vehicle
Unknown
Launch site
Rocket Lab Launch Complex (RLLC)
Object type
Payload
Rocket body
Debris
Shape & HBR
Trunc Cone, 0.7 m
Radar Cross Section
0.760 m², Medium (>0.1 m² and < 1m²)

Expand to show TLE details & history
Last TLE update: 10 hours ago

TLE from 10 hours ago
0 ELECTRON KICK STAGE R/B
1 62086U 24219F   25311.05427935  .00004887  00000-0  44468-3 0  9993
2 62086  97.9705 119.6335 0053388 331.8384  27.9951 14.94593649 51739
Epoch: 2025-11-07T01:18Z
TLE epoch observation values (Epoch: 2025-11-07T01:18:09.735Z)
Latitude
0.00002°
Longitude
53.58918°
Altitude
553.892 km
Speed
7.603 km/s
True Right ascension
07h 58m 32s
True Declination
0° 00' 00"
Sunlit
Object was in daylight at epoch
Visualization orbit readout
Latitude
Unknown
Longitude
Unknown
Altitude
Unknown
Speed
Unknown
Apparent Right ascension
Unknown
Apparent Declination
Unknown
Sunlit
N/A
Visualization observer readout
Local Sidereal Time
07:18:38
Azimuth
Unknown
Elevation
Unknown
Doppler factor
Unknown
Orbital elements
Apogee altitude
617.81 km
Perigee altitude
543.507 km
Semi-major axis
6,958.796 km
Eccentricity
0.00534
Inclination
97.9705°
RAAN
119.6335°
Arg. of periapsis
331.8384°
True anomaly
28.28397°
Mean anomaly
27.9951°
Eccentric anomaly
28.13936°
Mean motion
3.73888 °/min
Orbital period
96.29 mins
BSTAR
0.00044468
Loading maneuver chart data...
Computing Atmospheric mass density...
Loading historical data...
Loading historical data...
Loading historical data...
Loading historical data...
Loading historical data...
Loading historical data...
Loading historical data...

Documentation

Showing up to 5 results
|